| time (UTC) | temp F | wind direction | speed MPH | gust MPH | rain 1hr in | rain 24hr in | rain mn in | humidity % | barometer mb |
| 20260906120107 | 72 | 196 | 0.0 | 1.0 | 0.00 | 0.10 | 0.10 | 99 | 1013.4 |
| 20260906115606 | 72 | 167 | 0.0 | 0.0 | 0.00 | 0.10 | 0.10 | 99 | 1013.3 |
| 20260906115102 | 72 | 139 | 0.0 | 0.0 | 0.00 | 0.10 | 0.10 | 99 | 1013.1 |
| 20260906114556 | 71 | 165 | 0.0 | 0.0 | 0.00 | 0.10 | 0.10 | 99 | 1013.1 |
| 20260906114051 | 71 | 157 | 0.0 | 0.0 | 0.00 | 0.10 | 0.10 | 99 | 1013.2 |
| 20260906113550 | 71 | 172 | 0.0 | 1.0 | 0.00 | 0.10 | 0.10 | 99 | 1013.0 |
| 20260906113045 | 71 | 154 | 0.0 | 0.0 | 0.00 | 0.10 | 0.10 | 99 | 1013.0 |
| 20260906112540 | 71 | 85 | 0.0 | 0.0 | 0.00 | 0.10 | 0.10 | 99 | 1012.8 |
| 20260906112037 | 71 | 81 | 0.0 | 0.0 | 0.00 | 0.10 | 0.10 | 99 | 1012.9 |
| 20260906111536 | 71 | 84 | 0.0 | 0.0 | 0.00 | 0.10 | 0.10 | 99 | 1012.8 |
| 20260906111032 | 72 | 53 | 0.0 | 0.0 | 0.00 | 0.10 | 0.10 | 99 | 1012.8 |
| 20260906110531 | 72 | 130 | 0.0 | 0.0 | 0.00 | 0.10 | 0.10 | 99 | 1012.7 |
| 20260906110031 | 72 | 227 | 0.0 | 0.0 | 0.00 | 0.10 | 0.10 | 99 | 1013.1 |
| 20260906105526 | 72 | 113 | 0.0 | 0.0 | 0.00 | 0.10 | 0.10 | 99 | 1012.6 |
| 20260906105022 | 72 | 139 | 0.0 | 0.0 | 0.00 | 0.10 | 0.10 | 99 | 1012.8 |
| 20260906104520 | 72 | 146 | 0.0 | 1.0 | 0.00 | 0.10 | 0.10 | 99 | 1012.6 |
| 20260906104015 | 72 | 136 | 0.0 | 0.0 | 0.00 | 0.10 | 0.10 | 99 | 1012.7 |
| 20260906103513 | 72 | 150 | 0.0 | 0.0 | 0.00 | 0.10 | 0.10 | 99 | 1012.6 |
| 20260906103009 | 72 | 129 | 0.0 | 0.0 | 0.00 | 0.10 | 0.10 | 99 | 1012.5 |
| 20260906102508 | 72 | 196 | 1.0 | 2.0 | 0.00 | 0.10 | 0.10 | 99 | 1012.6 |
| 20260906102003 | 72 | 79 | 0.0 | 1.0 | 0.00 | 0.10 | 0.10 | 99 | 1012.9 |
| 20260906101458 | 72 | 210 | 0.0 | 0.0 | 0.00 | 0.10 | 0.10 | 99 | 1012.8 |
| 20260906100952 | 72 | 153 | 1.0 | 1.0 | 0.00 | 0.10 | 0.10 | 99 | 1012.6 |
| 20260906100448 | 72 | 144 | 0.0 | 1.0 | 0.00 | 0.10 | 0.10 | 98 | 1012.7 |
| 20260906095942 | 72 | 164 | 1.0 | 1.0 | 0.00 | 0.10 | 0.10 | 98 | 1012.8 |
| 20260906095438 | 71 | 181 | 1.0 | 1.0 | 0.00 | 0.10 | 0.10 | 99 | 1012.6 |
| 20260906094932 | 71 | 195 | 0.0 | 1.0 | 0.00 | 0.10 | 0.10 | 99 | 1012.7 |
| 20260906094426 | 71 | 164 | 0.0 | 1.0 | 0.00 | 0.10 | 0.10 | 99 | 1012.8 |
| 20260906093922 | 71 | 169 | 0.0 | 0.0 | 0.00 | 0.10 | 0.10 | 99 | 1012.8 |
| 20260906093419 | 71 | 146 | 0.0 | 1.0 | 0.00 | 0.10 | 0.10 | 99 | 1012.7 |
| 20260906092918 | 71 | 149 | 0.0 | 0.0 | 0.00 | 0.10 | 0.10 | 99 | 1012.8 |
| 20260906092413 | 71 | 137 | 0.0 | 0.0 | 0.07 | 0.10 | 0.10 | 99 | 1012.8 |
| 20260906091909 | 71 | 123 | 0.0 | 0.0 | 0.07 | 0.10 | 0.10 | 99 | 1012.7 |
| 20260906091404 | 71 | 142 | 0.0 | 0.0 | 0.00 | 0.09 | 0.09 | 99 | 1012.7 |
| 20260906090901 | 71 | 136 | 0.0 | 1.0 | 0.00 | 0.09 | 0.09 | 99 | 1012.7 |
| 20260906090400 | 71 | 137 | 0.0 | 0.0 | 0.00 | 0.09 | 0.09 | 99 | 1012.6 |
| 20260906085900 | 72 | 144 | 0.0 | 0.0 | 0.00 | 0.09 | 0.09 | 99 | 1012.5 |
| 20260906085354 | 72 | 141 | 0.0 | 0.0 | 0.00 | 0.09 | 0.09 | 99 | 1012.3 |
| 20260906084849 | 72 | 135 | 0.0 | 0.0 | 0.00 | 0.09 | 0.09 | 99 | 1012.3 |
| 20260906084348 | 72 | 146 | 0.0 | 0.0 | 0.00 | 0.09 | 0.09 | 99 | 1012.3 |
| 20260906083843 | 72 | 143 | 0.0 | 0.0 | 0.00 | 0.09 | 0.09 | 99 | 1012.3 |
| 20260906083338 | 73 | 157 | 0.0 | 0.0 | 0.00 | 0.09 | 0.09 | 99 | 1012.2 |
| 20260906082832 | 73 | 181 | 0.0 | 0.0 | 0.00 | 0.09 | 0.09 | 99 | 1012.4 |
| 20260906082327 | 73 | 173 | 0.0 | 0.0 | 0.00 | 0.09 | 0.09 | 99 | 1012.5 |
| 20260906081823 | 73 | 158 | 0.0 | 0.0 | 0.00 | 0.09 | 0.09 | 99 | 1012.4 |
| 20260906081319 | 73 | 146 | 0.0 | 0.0 | 0.00 | 0.09 | 0.09 | 99 | 1012.3 |
| 20260906080815 | 73 | 156 | 0.0 | 0.0 | 0.00 | 0.09 | 0.09 | 99 | 1012.5 |
| 20260906080311 | 73 | 194 | 0.0 | 0.0 | 0.00 | 0.09 | 0.09 | 99 | 1012.5 |
| 20260906075810 | 73 | 138 | 0.0 | 0.0 | 0.00 | 0.09 | 0.09 | 99 | 1012.5 |
| 20260906075310 | 73 | 139 | 0.0 | 0.0 | 0.00 | 0.09 | 0.09 | 99 | 1012.5 |
| 20260906074805 | 73 | 139 | 0.0 | 0.0 | 0.00 | 0.09 | 0.09 | 99 | 1012.5 |
| 20260906074305 | 73 | 142 | 0.0 | 0.0 | 0.00 | 0.09 | 0.09 | 99 | 1012.7 |
| 20260906073804 | 73 | 111 | 0.0 | 0.0 | 0.00 | 0.09 | 0.09 | 99 | 1012.7 |
| 20260906073259 | 73 | 118 | 0.0 | 0.0 | 0.00 | 0.09 | 0.09 | 98 | 1012.6 |
| 20260906072755 | 73 | 140 | 0.0 | 0.0 | 0.00 | 0.09 | 0.09 | 98 | 1012.7 |
| 20260906072251 | 74 | 168 | 0.0 | 1.0 | 0.00 | 0.09 | 0.09 | 98 | 1013.0 |
| 20260906071747 | 74 | 131 | 1.0 | 1.0 | 0.00 | 0.09 | 0.09 | 98 | 1013.1 |
| 20260906071247 | 74 | 138 | 0.0 | 0.0 | 0.00 | 0.09 | 0.09 | 98 | 1013.2 |
| 20260906070744 | 74 | 131 | 0.0 | 0.0 | 0.00 | 0.09 | 0.09 | 98 | 1013.3 |
| 20260906070239 | 74 | 268 | 1.0 | 1.0 | 0.00 | 0.09 | 0.09 | 97 | 1013.4 |
| 20260906065738 | 74 | 144 | 0.0 | 1.0 | 0.05 | 0.09 | 0.09 | 97 | 1013.3 |
| 20260906065234 | 75 | 236 | 1.0 | 1.0 | 0.24 | 0.09 | 0.09 | 96 | 1013.3 |
| 20260906064729 | 75 | 96 | 0.0 | 0.0 | 0.42 | 0.08 | 0.08 | 95 | 1013.3 |
| 20260906064225 | 76 | 227 | 1.0 | 1.0 | 0.38 | 0.06 | 0.06 | 93 | 1012.8 |
| 20260906063720 | 77 | 114 | 0.0 | 0.0 | 0.07 | 0.01 | 0.01 | 88 | 1013.5 |
| 20260906063215 | 78 | 43 | 1.0 | 2.0 | 0.00 | 0.00 | 0.00 | 85 | 1013.4 |
| 20260906062711 | 78 | 65 | 0.0 | 0.0 | 0.00 | 0.00 | 0.00 | 84 | 1013.1 |
| 20260906062209 | 78 | 122 | 0.0 | 0.0 | 0.00 | 0.00 | 0.00 | 84 | 1012.8 |
| 20260906061706 | 78 | 52 | 1.0 | 2.0 | 0.00 | 0.00 | 0.00 | 84 | 1012.9 |
| 20260906061201 | 78 | 306 | 0.0 | 1.0 | 0.00 | 0.00 | 0.00 | 84 | 1012.8 |
| 20260906060657 | 78 | 75 | 0.0 | 0.0 | 0.00 | 0.00 | 0.00 | 84 | 1013.0 |
| 20260906060154 | 78 | 79 | 1.0 | 1.0 | 0.00 | 0.00 | 0.00 | 83 | 1012.7 |
| 20260906055649 | 78 | 245 | 0.0 | 0.0 | 0.00 | 0.00 | 0.00 | 84 | 1012.9 |
| 20260906055144 | 79 | 26 | 0.0 | 1.0 | 0.00 | 0.00 | 0.00 | 84 | 1012.6 |
| 20260906054640 | 79 | 179 | 0.0 | 0.0 | 0.00 | 0.00 | 0.00 | 84 | 1013.1 |
| 20260906054135 | 79 | 243 | 1.0 | 1.0 | 0.00 | 0.00 | 0.00 | 85 | 1013.0 |
| 20260906053631 | 78 | 342 | 0.0 | 0.0 | 0.00 | 0.00 | 0.00 | 86 | 1013.1 |
| 20260906053126 | 78 | 76 | 0.0 | 0.0 | 0.00 | 0.00 | 0.00 | 87 | 1013.1 |
| 20260906052622 | 78 | 51 | 1.0 | 1.0 | 0.00 | 0.00 | 0.00 | 89 | 1013.0 |
| 20260906052118 | 78 | 304 | 0.0 | 0.0 | 0.00 | 0.00 | 0.00 | 90 | 1013.0 |
| 20260906051614 | 77 | 68 | 1.0 | 2.0 | 0.00 | 0.00 | 0.00 | 92 | 1012.6 |
| 20260906051109 | 77 | 97 | 0.0 | 0.0 | 0.00 | 0.00 | 0.00 | 92 | 1012.7 |
| 20260906050604 | 78 | 97 | 0.0 | 0.0 | 0.00 | 0.00 | 0.00 | 92 | 1012.6 |
| 20260906050059 | 78 | 97 | 0.0 | 0.0 | 0.00 | 0.00 | 0.00 | 91 | 1012.5 |
| 20260906045557 | 78 | 96 | 0.0 | 0.0 | 0.00 | 0.00 | 0.00 | 91 | 1012.6 |
| 20260906045053 | 78 | 96 | 0.0 | 0.0 | 0.00 | 0.00 | 0.00 | 91 | 1012.5 |
| 20260906044549 | 78 | 95 | 0.0 | 0.0 | 0.00 | 0.00 | 0.00 | 91 | 1012.5 |
| 20260906044044 | 78 | 95 | 0.0 | 0.0 | 0.00 | 0.00 | 0.00 | 91 | 1012.8 |
| 20260906043540 | 78 | 110 | 0.0 | 0.0 | 0.00 | 0.00 | 0.00 | 90 | 1012.6 |
| 20260906043036 | 78 | 110 | 0.0 | 0.0 | 0.00 | 0.00 | 0.00 | 90 | 1012.5 |
| 20260906042534 | 78 | 110 | 0.0 | 0.0 | 0.00 | 0.00 | 0.00 | 90 | 1012.6 |
| 20260906042029 | 78 | 110 | 0.0 | 0.0 | 0.00 | 0.00 | 0.00 | 90 | 1012.6 |
| 20260906041526 | 78 | 108 | 0.0 | 0.0 | 0.00 | 0.00 | 0.00 | 90 | 1013.0 |
| 20260906041026 | 78 | 110 | 0.0 | 0.0 | 0.00 | 0.00 | 0.00 | 90 | 1012.8 |
| 20260906040520 | 78 | 110 | 0.0 | 0.0 | 0.00 | 0.00 | 0.00 | 90 | 1012.9 |
| 20260906040016 | 79 | 110 | 0.0 | 0.0 | 0.00 | 0.00 | 0.00 | 89 | 1013.0 |
| 20260906035511 | 79 | 110 | 0.0 | 0.0 | 0.00 | 0.00 | 0.00 | 89 | 1012.9 |
| 20260906035007 | 79 | 111 | 0.0 | 0.0 | 0.00 | 0.00 | 0.00 | 89 | 1012.8 |
| 20260906034507 | 79 | 109 | 0.0 | 0.0 | 0.00 | 0.00 | 0.00 | 89 | 1012.8 |
| 20260906034002 | 79 | 108 | 0.0 | 0.0 | 0.00 | 0.00 | 0.00 | 88 | 1013.1 |
| 20260906033456 | 79 | 140 | 0.0 | 0.0 | 0.00 | 0.00 | 0.00 | 88 | 1012.6 |
| 20260906032952 | 80 | 140 | 0.0 | 0.0 | 0.00 | 0.00 | 0.00 | 88 | 1012.8 |
| 20260906032448 | 80 | 140 | 0.0 | 0.0 | 0.00 | 0.00 | 0.00 | 87 | 1012.6 |
| 20260906031943 | 80 | 140 | 0.0 | 0.0 | 0.00 | 0.00 | 0.00 | 87 | 1012.7 |
| 20260906031438 | 80 | 140 | 0.0 | 0.0 | 0.00 | 0.00 | 0.00 | 87 | 1012.7 |
| 20260906030933 | 80 | 140 | 0.0 | 0.0 | 0.00 | 0.00 | 0.00 | 87 | 1012.7 |
| 20260906030428 | 80 | 140 | 0.0 | 0.0 | 0.00 | 0.00 | 0.00 | 87 | 1012.6 |
| 20260906025922 | 80 | 110 | 0.0 | 0.0 | 0.00 | 0.00 | 0.00 | 86 | 1012.5 |
| 20260906025417 | 80 | 153 | 1.0 | 1.0 | 0.00 | 0.00 | 0.00 | 86 | 1012.6 |
| 20260906024916 | 80 | 79 | 0.0 | 0.0 | 0.00 | 0.00 | 0.00 | 87 | 1012.6 |
| 20260906024415 | 79 | 140 | 0.0 | 0.0 | 0.00 | 0.00 | 0.00 | 88 | 1012.4 |
| 20260906023910 | 79 | 142 | 0.0 | 0.0 | 0.00 | 0.00 | 0.00 | 88 | 1012.1 |
| 20260906023407 | 80 | 150 | 1.0 | 1.0 | 0.00 | 0.00 | 0.00 | 88 | 1012.1 |
| 20260906022907 | 79 | 155 | 1.0 | 1.0 | 0.00 | 0.00 | 0.00 | 88 | 1011.8 |
| 20260906022402 | 80 | 144 | 0.0 | 0.0 | 0.00 | 0.00 | 0.00 | 88 | 1011.8 |
| 20260906021857 | 80 | 144 | 0.0 | 0.0 | 0.00 | 0.00 | 0.00 | 88 | 1011.7 |
| 20260906021356 | 80 | 144 | 0.0 | 0.0 | 0.00 | 0.00 | 0.00 | 87 | 1011.6 |
| 20260906020851 | 80 | 144 | 0.0 | 0.0 | 0.00 | 0.00 | 0.00 | 87 | 1011.3 |
| 20260906020350 | 80 | 144 | 0.0 | 0.0 | 0.00 | 0.00 | 0.00 | 87 | 1011.7 |
| 20260906015845 | 81 | 143 | 0.0 | 0.0 | 0.00 | 0.00 | 0.00 | 86 | 1011.5 |
| 20260906015344 | 81 | 146 | 0.0 | 0.0 | 0.00 | 0.00 | 0.00 | 85 | 1011.6 |
| 20260906014839 | 81 | 155 | 0.0 | 0.0 | 0.00 | 0.00 | 0.00 | 84 | 1011.6 |
| 20260906014339 | 81 | 154 | 0.0 | 0.0 | 0.00 | 0.00 | 0.00 | 84 | 1011.6 |
| 20260906013830 | 81 | 154 | 0.0 | 0.0 | 0.00 | 0.00 | 0.00 | 83 | 1011.6 |
| 20260906013325 | 81 | 154 | 0.0 | 0.0 | 0.00 | 0.00 | 0.00 | 83 | 1011.7 |
| 20260906012821 | 82 | 154 | 0.0 | 0.0 | 0.00 | 0.00 | 0.00 | 82 | 1011.6 |
| 20260906012321 | 82 | 154 | 0.0 | 0.0 | 0.00 | 0.00 | 0.00 | 82 | 1011.6 |
| 20260906011815 | 82 | 154 | 0.0 | 0.0 | 0.00 | 0.00 | 0.00 | 82 | 1011.6 |
| 20260906011315 | 82 | 154 | 0.0 | 0.0 | 0.00 | 0.00 | 0.00 | 82 | 1011.8 |
| 20260906010812 | 82 | 154 | 0.0 | 0.0 | 0.00 | 0.00 | 0.00 | 81 | 1011.7 |
| 20260906010308 | 82 | 154 | 0.0 | 0.0 | 0.00 | 0.00 | 0.00 | 80 | 1012.1 |
| 20260906005803 | 83 | 154 | 0.0 | 0.0 | 0.00 | 0.00 | 0.00 | 80 | 1011.9 |
| 20260906005301 | 83 | 154 | 0.0 | 0.0 | 0.00 | 0.00 | 0.00 | 79 | 1011.7 |
| 20260906004800 | 83 | 154 | 0.0 | 0.0 | 0.00 | 0.00 | 0.00 | 78 | 1011.6 |
| 20260906004255 | 83 | 154 | 0.0 | 0.0 | 0.00 | 0.00 | 0.00 | 78 | 1011.7 |
| 20260906003750 | 83 | 153 | 0.0 | 0.0 | 0.00 | 0.00 | 0.00 | 79 | 1011.6 |
| 20260906003246 | 84 | 154 | 0.0 | 0.0 | 0.00 | 0.00 | 0.00 | 78 | 1011.4 |
| 20260906002741 | 84 | 154 | 0.0 | 0.0 | 0.00 | 0.00 | 0.00 | 78 | 1011.4 |
| 20260906002241 | 84 | 154 | 0.0 | 0.0 | 0.00 | 0.00 | 0.00 | 77 | 1011.5 |
| 20260906001736 | 84 | 153 | 0.0 | 0.0 | 0.00 | 0.00 | 0.00 | 77 | 1011.4 |
| 20260906001231 | 85 | 154 | 0.0 | 0.0 | 0.00 | 0.00 | 0.00 | 76 | 1011.5 |
| 20260906000727 | 85 | 154 | 0.0 | 0.0 | 0.00 | 0.00 | 0.00 | 76 | 1011.6 |
| 20260906000226 | 86 | 154 | 0.0 | 0.0 | 0.00 | 0.00 | 0.00 | 75 | 1011.7 |
| 20260905235721 | 86 | 154 | 0.0 | 0.0 | 0.00 | 0.00 | 0.00 | 74 | 1011.4 |
| 20260905235216 | 87 | 153 | 0.0 | 0.0 | 0.00 | 0.00 | 0.00 | 72 | 1011.7 |
| 20260905234711 | 87 | 154 | 0.0 | 0.0 | 0.00 | 0.00 | 0.00 | 71 | 1011.8 |
| 20260905234207 | 87 | 154 | 0.0 | 0.0 | 0.00 | 0.00 | 0.00 | 71 | 1011.8 |
| 20260905233702 | 88 | 150 | 0.0 | 0.0 | 0.00 | 0.00 | 0.00 | 69 | 1011.9 |
| 20260905233201 | 88 | 149 | 0.0 | 0.0 | 0.00 | 0.00 | 0.00 | 69 | 1011.7 |
| 20260905232656 | 89 | 154 | 0.0 | 0.0 | 0.00 | 0.00 | 0.00 | 69 | 1011.8 |
| 20260905232152 | 89 | 154 | 0.0 | 0.0 | 0.00 | 0.00 | 0.00 | 68 | 1011.7 |
| 20260905231647 | 90 | 150 | 0.0 | 0.0 | 0.00 | 0.00 | 0.00 | 66 | 1011.7 |
| 20260905231143 | 91 | 157 | 0.0 | 0.0 | 0.00 | 0.00 | 0.00 | 65 | 1011.3 |
| 20260905230639 | 92 | 159 | 0.0 | 0.0 | 0.00 | 0.00 | 0.00 | 62 | 1011.6 |
| 20260905230137 | 93 | 115 | 0.0 | 1.0 | 0.00 | 0.00 | 0.00 | 59 | 1011.6 |
| 20260905225636 | 94 | 156 | 0.0 | 0.0 | 0.00 | 0.00 | 0.00 | 59 | 1011.7 |
| 20260905225131 | 96 | 113 | 0.0 | 0.0 | 0.00 | 0.00 | 0.00 | 55 | 1011.5 |
| 20260905224630 | 96 | 197 | 0.0 | 0.0 | 0.00 | 0.00 | 0.00 | 52 | 1011.6 |
| 20260905224125 | 96 | 324 | 1.0 | 1.0 | 0.00 | 0.00 | 0.00 | 50 | 1011.3 |
| 20260905223622 | 97 | 106 | 0.0 | 1.0 | 0.00 | 0.00 | 0.00 | 50 | 1011.5 |
| 20260905223118 | 97 | 250 | 0.0 | 0.0 | 0.00 | 0.00 | 0.00 | 51 | 1011.6 |
| 20260905222613 | 97 | 188 | 0.0 | 0.0 | 0.00 | 0.00 | 0.00 | 51 | 1011.4 |
| 20260905222108 | 98 | 59 | 1.0 | 1.0 | 0.00 | 0.00 | 0.00 | 50 | 1011.6 |
| 20260905221604 | 98 | 56 | 0.0 | 0.0 | 0.00 | 0.00 | 0.00 | 47 | 1011.7 |
| 20260905221100 | 99 | 217 | 1.0 | 1.0 | 0.00 | 0.00 | 0.00 | 49 | 1011.7 |
| 20260905220555 | 99 | 219 | 0.0 | 0.0 | 0.00 | 0.00 | 0.00 | 48 | 1011.8 |
| 20260905220051 | 98 | 188 | 0.0 | 0.0 | 0.00 | 0.00 | 0.00 | 49 | 1011.7 |
| 20260905215550 | 100 | 180 | 0.0 | 0.0 | 0.00 | 0.00 | 0.00 | 48 | 1011.5 |
| 20260905215047 | 98 | 168 | 1.0 | 2.0 | 0.00 | 0.00 | 0.00 | 50 | 1011.6 |
| 20260905214542 | 98 | 355 | 2.0 | 2.0 | 0.00 | 0.00 | 0.00 | 47 | 1011.5 |
| 20260905214037 | 98 | 272 | 0.0 | 0.0 | 0.00 | 0.00 | 0.00 | 47 | 1011.6 |
| 20260905213532 | 98 | 18 | 2.0 | 2.0 | 0.00 | 0.00 | 0.00 | 48 | 1011.5 |
| 20260905213028 | 100 | 328 | 0.0 | 1.0 | 0.00 | 0.00 | 0.00 | 45 | 1011.6 |
| 20260905212523 | 99 | 274 | 1.0 | 1.0 | 0.00 | 0.00 | 0.00 | 47 | 1011.7 |
| 20260905212022 | 99 | 193 | 1.0 | 1.0 | 0.00 | 0.00 | 0.00 | 49 | 1011.7 |
| 20260905211517 | 99 | 106 | 0.0 | 1.0 | 0.00 | 0.00 | 0.00 | 48 | 1011.8 |
| 20260905211013 | 98 | 315 | 0.0 | 1.0 | 0.00 | 0.00 | 0.00 | 46 | 1011.6 |
| 20260905210509 | 99 | 36 | 2.0 | 2.0 | 0.00 | 0.00 | 0.00 | 47 | 1011.7 |
| 20260905210009 | 98 | 20 | 1.0 | 1.0 | 0.00 | 0.00 | 0.00 | 48 | 1011.9 |
| 20260905205503 | 98 | 277 | 1.0 | 1.0 | 0.00 | 0.00 | 0.00 | 48 | 1012.1 |
| 20260905205002 | 98 | 314 | 1.0 | 1.0 | 0.00 | 0.00 | 0.00 | 49 | 1012.1 |
| 20260905204457 | 97 | 354 | 1.0 | 4.0 | 0.00 | 0.00 | 0.00 | 50 | 1012.1 |
| 20260905203957 | 97 | 189 | 1.0 | 1.0 | 0.00 | 0.00 | 0.00 | 50 | 1012.2 |
| 20260905203452 | 98 | 72 | 2.0 | 2.0 | 0.00 | 0.00 | 0.00 | 50 | 1012.2 |
| 20260905202947 | 98 | 11 | 3.0 | 3.0 | 0.00 | 0.00 | 0.00 | 50 | 1012.2 |
| 20260905202442 | 98 | 75 | 3.0 | 3.0 | 0.00 | 0.00 | 0.00 | 49 | 1012.4 |
| 20260905201938 | 98 | 79 | 2.0 | 2.0 | 0.00 | 0.00 | 0.00 | 50 | 1012.4 |
| 20260905201433 | 100 | 292 | 4.0 | 4.0 | 0.00 | 0.00 | 0.00 | 47 | 1012.5 |
| 20260905200927 | 100 | 335 | 3.0 | 4.0 | 0.00 | 0.00 | 0.00 | 46 | 1012.5 |
| 20260905200423 | 99 | 224 | 0.0 | 0.0 | 0.00 | 0.00 | 0.00 | 54 | 1012.6 |
| 20260905195921 | 99 | 52 | 2.0 | 3.0 | 0.00 | 0.00 | 0.00 | 49 | 1012.7 |
| 20260905195417 | 99 | 278 | 2.0 | 3.0 | 0.00 | 0.00 | 0.00 | 47 | 1012.9 |
| 20260905194912 | 99 | 335 | 1.0 | 2.0 | 0.00 | 0.00 | 0.00 | 48 | 1012.7 |
| 20260905194411 | 98 | 14 | 3.0 | 3.0 | 0.00 | 0.00 | 0.00 | 49 | 1012.9 |
| 20260905193906 | 99 | 238 | 1.0 | 1.0 | 0.00 | 0.00 | 0.00 | 49 | 1012.9 |
| 20260905193401 | 99 | 10 | 0.0 | 1.0 | 0.00 | 0.00 | 0.00 | 49 | 1012.9 |
| 20260905192856 | 99 | 326 | 0.0 | 1.0 | 0.00 | 0.00 | 0.00 | 49 | 1012.8 |
| 20260905192351 | 99 | 302 | 2.0 | 2.0 | 0.00 | 0.00 | 0.00 | 49 | 1012.9 |
| 20260905191851 | 98 | 166 | 1.0 | 1.0 | 0.00 | 0.00 | 0.00 | 49 | 1013.0 |
| 20260905191350 | 98 | 227 | 1.0 | 1.0 | 0.00 | 0.00 | 0.00 | 50 | 1013.1 |
| 20260905190849 | 97 | 227 | 1.0 | 1.0 | 0.00 | 0.00 | 0.00 | 49 | 1013.2 |
| 20260905190342 | 96 | 274 | 0.0 | 0.0 | 0.00 | 0.00 | 0.00 | 50 | 1013.3 |
| 20260905185841 | 96 | 52 | 2.0 | 2.0 | 0.00 | 0.00 | 0.00 | 50 | 1013.5 |
| 20260905185331 | 96 | 96 | 1.0 | 2.0 | 0.00 | 0.00 | 0.00 | 50 | 1013.8 |
| 20260905184830 | 96 | 110 | 1.0 | 1.0 | 0.00 | 0.00 | 0.00 | 50 | 1013.5 |
| 20260905184330 | 98 | 90 | 1.0 | 1.0 | 0.00 | 0.00 | 0.00 | 47 | 1013.7 |
| 20260905183827 | 97 | 303 | 1.0 | 1.0 | 0.00 | 0.00 | 0.00 | 45 | 1014.0 |
| 20260905183324 | 96 | 134 | 1.0 | 1.0 | 0.00 | 0.00 | 0.00 | 48 | 1014.0 |
| 20260905182823 | 95 | 111 | 1.0 | 1.0 | 0.00 | 0.00 | 0.00 | 50 | 1014.1 |
| 20260905182318 | 96 | 348 | 1.0 | 2.0 | 0.00 | 0.00 | 0.00 | 50 | 1014.0 |
| 20260905181813 | 95 | 70 | 1.0 | 2.0 | 0.00 | 0.00 | 0.00 | 52 | 1014.1 |
| 20260905181307 | 95 | 63 | 1.0 | 1.0 | 0.00 | 0.00 | 0.00 | 50 | 1014.1 |
| 20260905180806 | 96 | 120 | 0.0 | 1.0 | 0.00 | 0.00 | 0.00 | 53 | 1014.3 |
| 20260905180301 | 96 | 98 | 0.0 | 1.0 | 0.00 | 0.00 | 0.00 | 51 | 1014.2 |
| 20260905175756 | 95 | 48 | 0.0 | 1.0 | 0.00 | 0.00 | 0.00 | 51 | 1014.4 |
| 20260905175250 | 95 | 174 | 1.0 | 2.0 | 0.00 | 0.00 | 0.00 | 51 | 1014.2 |
| 20260905174746 | 94 | 19 | 1.0 | 1.0 | 0.00 | 0.00 | 0.00 | 53 | 1014.2 |
| 20260905174242 | 94 | 140 | 1.0 | 2.0 | 0.00 | 0.00 | 0.00 | 53 | 1014.1 |
| 20260905173737 | 95 | 9 | 2.0 | 3.0 | 0.00 | 0.00 | 0.00 | 53 | 1014.2 |
| 20260905173233 | 95 | 284 | 0.0 | 0.0 | 0.00 | 0.00 | 0.00 | 56 | 1014.3 |
| 20260905172732 | 94 | 204 | 1.0 | 1.0 | 0.00 | 0.00 | 0.00 | 56 | 1014.3 |
| 20260905172227 | 94 | 226 | 1.0 | 1.0 | 0.00 | 0.00 | 0.00 | 56 | 1014.3 |
| 20260905171723 | 93 | 79 | 1.0 | 2.0 | 0.00 | 0.00 | 0.00 | 56 | 1014.3 |
| 20260905171219 | 93 | 210 | 1.0 | 1.0 | 0.00 | 0.00 | 0.00 | 58 | 1014.5 |
| 20260905170716 | 93 | 25 | 3.0 | 3.0 | 0.00 | 0.00 | 0.00 | 58 | 1014.6 |
| 20260905170216 | 93 | 342 | 0.0 | 1.0 | 0.00 | 0.00 | 0.00 | 57 | 1014.6 |
| 20260905165715 | 93 | 83 | 1.0 | 1.0 | 0.00 | 0.00 | 0.00 | 58 | 1014.6 |
| 20260905165211 | 92 | 77 | 1.0 | 1.0 | 0.00 | 0.00 | 0.00 | 61 | 1014.7 |
| 20260905164710 | 91 | 16 | 1.0 | 2.0 | 0.00 | 0.00 | 0.00 | 60 | 1014.6 |
| 20260905164205 | 91 | 39 | 1.0 | 1.0 | 0.00 | 0.00 | 0.00 | 60 | 1014.6 |
| 20260905163701 | 91 | 10 | 2.0 | 2.0 | 0.00 | 0.00 | 0.00 | 59 | 1014.8 |
| 20260905163157 | 91 | 92 | 0.0 | 0.0 | 0.00 | 0.00 | 0.00 | 59 | 1014.8 |
| 20260905162653 | 91 | 310 | 1.0 | 1.0 | 0.00 | 0.00 | 0.00 | 60 | 1015.1 |
| 20260905162152 | 90 | 208 | 0.0 | 1.0 | 0.00 | 0.00 | 0.00 | 60 | 1014.9 |
| 20260905161647 | 91 | 33 | 2.0 | 3.0 | 0.00 | 0.00 | 0.00 | 61 | 1014.9 |
| 20260905161145 | 91 | 153 | 0.0 | 0.0 | 0.00 | 0.00 | 0.00 | 63 | 1014.9 |
| 20260905160639 | 90 | 270 | 1.0 | 1.0 | 0.00 | 0.00 | 0.00 | 64 | 1015.0 |
| 20260905160138 | 90 | 81 | 0.0 | 1.0 | 0.00 | 0.00 | 0.00 | 63 | 1015.2 |
| 20260905155633 | 90 | 237 | 2.0 | 2.0 | 0.00 | 0.00 | 0.00 | 62 | 1015.1 |
| 20260905155132 | 90 | 340 | 0.0 | 1.0 | 0.00 | 0.00 | 0.00 | 64 | 1015.1 |
| 20260905154632 | 90 | 99 | 0.0 | 1.0 | 0.00 | 0.00 | 0.00 | 66 | 1015.3 |
| 20260905154128 | 89 | 22 | 1.0 | 2.0 | 0.00 | 0.00 | 0.00 | 66 | 1015.2 |
| 20260905153623 | 89 | 29 | 3.0 | 3.0 | 0.00 | 0.00 | 0.00 | 67 | 1015.4 |
| 20260905153119 | 89 | 283 | 0.0 | 1.0 | 0.00 | 0.00 | 0.00 | 67 | 1015.3 |
| 20260905152613 | 88 | 9 | 4.0 | 4.0 | 0.00 | 0.00 | 0.00 | 67 | 1015.2 |
| 20260905152108 | 88 | 108 | 1.0 | 1.0 | 0.00 | 0.00 | 0.00 | 68 | 1015.4 |
| 20260905151603 | 87 | 305 | 0.0 | 1.0 | 0.00 | 0.00 | 0.00 | 69 | 1015.6 |
| 20260905151058 | 87 | 19 | 1.0 | 1.0 | 0.00 | 0.00 | 0.00 | 70 | 1015.7 |
| 20260905150554 | 87 | 29 | 1.0 | 2.0 | 0.00 | 0.00 | 0.00 | 69 | 1015.6 |
| 20260905150051 | 87 | 56 | 0.0 | 0.0 | 0.00 | 0.00 | 0.00 | 71 | 1015.6 |
| 20260905145545 | 87 | 342 | 1.0 | 1.0 | 0.00 | 0.00 | 0.00 | 71 | 1015.4 |
| 20260905145044 | 86 | 19 | 2.0 | 2.0 | 0.00 | 0.00 | 0.00 | 71 | 1015.3 |
| 20260905144539 | 86 | 25 | 2.0 | 3.0 | 0.00 | 0.00 | 0.00 | 73 | 1015.4 |
| 20260905144038 | 85 | 87 | 0.0 | 1.0 | 0.00 | 0.00 | 0.00 | 74 | 1015.6 |
| 20260905143538 | 85 | 30 | 1.0 | 2.0 | 0.00 | 0.00 | 0.00 | 74 | 1015.7 |
| 20260905143033 | 85 | 83 | 0.0 | 0.0 | 0.00 | 0.00 | 0.00 | 78 | 1015.4 |
| 20260905142532 | 84 | 30 | 0.0 | 0.0 | 0.00 | 0.00 | 0.00 | 79 | 1015.7 |
| 20260905142027 | 84 | 62 | 0.0 | 0.0 | 0.00 | 0.00 | 0.00 | 84 | 1015.6 |
| 20260905141521 | 83 | 61 | 0.0 | 0.0 | 0.00 | 0.00 | 0.00 | 85 | 1015.8 |
| 20260905141018 | 82 | 61 | 0.0 | 0.0 | 0.00 | 0.00 | 0.00 | 84 | 1015.4 |
| 20260905140513 | 82 | 61 | 0.0 | 0.0 | 0.00 | 0.00 | 0.00 | 86 | 1015.3 |
| 20260905140011 | 82 | 61 | 0.0 | 0.0 | 0.00 | 0.00 | 0.00 | 87 | 1015.4 |
| 20260905135507 | 81 | 61 | 0.0 | 0.0 | 0.00 | 0.00 | 0.00 | 87 | 1015.6 |
| 20260905135002 | 80 | 61 | 0.0 | 0.0 | 0.00 | 0.00 | 0.00 | 88 | 1015.6 |
| 20260905134502 | 80 | 61 | 0.0 | 0.0 | 0.00 | 0.00 | 0.00 | 88 | 1015.2 |
| 20260905134001 | 80 | 61 | 0.0 | 0.0 | 0.00 | 0.00 | 0.00 | 88 | 1015.6 |
| 20260905133455 | 80 | 61 | 0.0 | 0.0 | 0.00 | 0.00 | 0.00 | 89 | 1015.6 |
| 20260905132949 | 80 | 61 | 0.0 | 0.0 | 0.00 | 0.00 | 0.00 | 90 | 1015.6 |
| 20260905132445 | 79 | 61 | 0.0 | 0.0 | 0.00 | 0.00 | 0.00 | 90 | 1015.4 |
| 20260905131939 | 79 | 61 | 0.0 | 0.0 | 0.00 | 0.00 | 0.00 | 91 | 1015.4 |
| 20260905131435 | 79 | 61 | 0.0 | 0.0 | 0.00 | 0.00 | 0.00 | 92 | 1015.4 |
| 20260905130930 | 78 | 61 | 0.0 | 0.0 | 0.00 | 0.00 | 0.00 | 93 | 1015.7 |
| 20260905130429 | 78 | 61 | 0.0 | 0.0 | 0.00 | 0.00 | 0.00 | 93 | 1015.6 |
| 20260905125924 | 77 | 61 | 0.0 | 0.0 | 0.00 | 0.00 | 0.00 | 93 | 1015.3 |
| 20260905125419 | 76 | 61 | 0.0 | 0.0 | 0.00 | 0.00 | 0.00 | 94 | 1015.7 |
| 20260905124914 | 76 | 62 | 0.0 | 0.0 | 0.00 | 0.00 | 0.00 | 94 | 1015.7 |
| 20260905124411 | 76 | 62 | 0.0 | 0.0 | 0.00 | 0.00 | 0.00 | 95 | 1015.8 |
| 20260905123911 | 76 | 61 | 0.0 | 0.0 | 0.00 | 0.00 | 0.00 | 96 | 1015.8 |
| 20260905123407 | 75 | 61 | 0.0 | 0.0 | 0.00 | 0.00 | 0.00 | 96 | 1015.6 |
| 20260905122902 | 75 | 61 | 0.0 | 0.0 | 0.00 | 0.00 | 0.00 | 97 | 1015.7 |
| 20260905122402 | 74 | 61 | 0.0 | 0.0 | 0.00 | 0.00 | 0.00 | 98 | 1015.6 |
| 20260905121857 | 74 | 68 | 0.0 | 0.0 | 0.00 | 0.00 | 0.00 | 99 | 1015.3 |
| 20260905121353 | 73 | 146 | 0.0 | 0.0 | 0.00 | 0.00 | 0.00 | 99 | 1015.4 |
| 20260905120852 | 73 | 146 | 0.0 | 0.0 | 0.00 | 0.00 | 0.00 | 99 | 1015.4 |
| 20260905120346 | 73 | 146 | 0.0 | 0.0 | 0.00 | 0.00 | 0.00 | 99 | 1015.3 |